QFA23R YSSY-YMML

Flight info

Callsign QFA23R
Flight time N/A
Altitude 34000
Route YSSY/34R 3404S15144E WOL H65 LEECE Q29 BOOIN BOIN1A/34
Aircraft A320/M-SDE3FGHIRWY/LB1

Departure

Time N/A
Airport Sydney Kingsford Smith International Airport (YSSY)

Arrival

Time 2026-05-04 11:29
Airport Melbourne Airport (YMML)
Time Latitude Longitude Altitude Speed Heading
2026-05-04 10:42 -35.84209 148.59990 34111 ft 436 kts 244°
2026-05-04 10:43 -35.85946 148.56928 34139 ft 436 kts 244°
2026-05-04 10:45 -35.99825 148.32307 34116 ft 437 kts 244°
2026-05-04 10:45 -36.03281 148.26129 34088 ft 438 kts 244°
2026-05-04 10:46 -36.06749 148.19931 34126 ft 439 kts 244°
2026-05-04 10:46 -36.10217 148.13714 34119 ft 439 kts 244°
2026-05-04 10:47 -36.13690 148.07499 34109 ft 440 kts 244°
2026-05-04 10:47 -36.17181 148.01280 34108 ft 440 kts 244°
2026-05-04 10:49 -36.39597 147.88344 34099 ft 502 kts 193°
2026-05-04 10:50 -36.46568 147.87601 34090 ft 503 kts 192°
2026-05-04 10:52 -36.74335 147.84286 34075 ft 501 kts 193°
2026-05-04 10:52 -36.81260 147.83393 34062 ft 501 kts 193°
2026-05-04 10:54 -37.09057 147.79813 34051 ft 503 kts 193°
2026-05-04 10:56 -37.37130 147.76276 33990 ft 511 kts 193°
2026-05-04 10:57 -37.44228 147.75394 33978 ft 512 kts 193°
2026-05-04 10:57 -37.47675 147.74535 33977 ft 497 kts 207°
2026-05-04 10:57 -37.50767 147.72779 33982 ft 479 kts 221°
2026-05-04 10:57 -37.53365 147.70300 33979 ft 461 kts 234°
2026-05-04 10:58 -37.55403 147.67283 33970 ft 444 kts 246°
2026-05-04 10:58 -37.56841 147.63925 33988 ft 428 kts 258°
2026-05-04 10:58 -37.57682 147.60396 33984 ft 415 kts 268°
2026-05-04 10:58 -37.57957 147.56837 33973 ft 403 kts 278°
2026-05-04 10:59 -37.57697 147.53357 33970 ft 395 kts 287°
2026-05-04 10:59 -37.55773 147.47026 33961 ft 385 kts 301°
2026-05-04 11:00 -37.53258 147.41054 33979 ft 387 kts 301°
2026-05-04 11:02 -37.43154 147.17099 33962 ft 388 kts 301°
2026-05-04 11:05 -37.23803 146.71772 33952 ft 397 kts 300°
2026-05-04 11:06 -37.22921 146.69723 33719 ft 392 kts 300°
2026-05-04 11:06 -37.21302 146.65953 33292 ft 381 kts 301°
2026-05-04 11:06 -37.20054 146.63047 32859 ft 375 kts 301°
2026-05-04 11:06 -37.18826 146.60192 32501 ft 369 kts 301°
2026-05-04 11:08 -37.10816 146.41699 30138 ft 327 kts 302°
2026-05-04 11:10 -37.14169 146.22638 27277 ft 364 kts 245°
2026-05-04 11:12 -37.23963 146.04083 24066 ft 368 kts 241°
2026-05-04 11:12 -37.25376 146.01393 23615 ft 368 kts 240°
2026-05-04 11:12 -37.26783 145.98714 23049 ft 368 kts 240°
2026-05-04 11:12 -37.28178 145.96056 22775 ft 361 kts 240°
2026-05-04 11:13 -37.29553 145.93431 22287 ft 359 kts 240°
2026-05-04 11:13 -37.30921 145.90815 21830 ft 357 kts 242°
2026-05-04 11:13 -37.32279 145.88226 21434 ft 353 kts 240°
2026-05-04 11:13 -37.33627 145.85658 20977 ft 351 kts 241°
2026-05-04 11:14 -37.34513 145.83971 20716 ft 348 kts 242°
2026-05-04 11:14 -37.37433 145.78418 19776 ft 342 kts 240°
2026-05-04 11:16 -37.46439 145.61308 16549 ft 329 kts 238°
2026-05-04 11:16 -37.47783 145.58989 16113 ft 327 kts 237°
2026-05-04 11:16 -37.49140 145.56697 15688 ft 325 kts 237°
2026-05-04 11:17 -37.50502 145.54406 15282 ft 321 kts 237°
2026-05-04 11:17 -37.51836 145.52149 14843 ft 320 kts 237°
2026-05-04 11:19 -37.60798 145.36704 11900 ft 304 kts 238°
2026-05-04 11:19 -37.62038 145.34557 11485 ft 302 kts 238°
2026-05-04 11:19 -37.63271 145.32426 11087 ft 300 kts 238°
2026-05-04 11:19 -37.64478 145.30336 10706 ft 297 kts 238°
2026-05-04 11:20 -37.65693 145.28229 10532 ft 288 kts 238°
2026-05-04 11:20 -37.66854 145.26221 10383 ft 279 kts 238°
2026-05-04 11:20 -37.67971 145.24281 10125 ft 275 kts 238°
2026-05-04 11:20 -37.69082 145.22345 9606 ft 270 kts 238°
2026-05-04 11:22 -37.76378 145.09660 6904 ft 237 kts 239°
2026-05-04 11:22 -37.77338 145.07983 6460 ft 234 kts 238°
2026-05-04 11:23 -37.78283 145.06327 5983 ft 230 kts 239°
2026-05-04 11:23 -37.79217 145.04693 5508 ft 230 kts 239°
2026-05-04 11:24 -37.82594 144.93838 3628 ft 223 kts 261°
2026-05-04 11:25 -37.82855 144.91947 3487 ft 214 kts 263°
2026-05-04 11:25 -37.83078 144.90133 3377 ft 202 kts 263°
2026-05-04 11:25 -37.83228 144.88460 3282 ft 182 kts 276°
2026-05-04 11:26 -37.81548 144.86483 2974 ft 187 kts 341°
2026-05-04 11:27 -37.73396 144.85028 1311 ft 132 kts 343°
2026-05-04 11:28 -37.72496 144.84807 1069 ft 132 kts 353°
2026-05-04 11:28 -37.71589 144.84681 997 ft 131 kts 355°
2026-05-04 11:28 -37.70686 144.84501 861 ft 133 kts 350°
2026-05-04 11:28 -37.69765 144.84319 639 ft 132 kts 353°
2026-05-04 11:29 -37.68878 144.84151 431 ft 129 kts 352°
2026-05-04 11:29 -37.68010 144.83993 351 ft 109 kts 352°
2026-05-04 11:29 -37.67433 144.83887 368 ft 61 kts 352°
2026-05-04 11:29 -37.67166 144.83838 378 ft 28 kts 353°
2026-05-04 11:31 -37.66545 144.84112 377 ft 15 kts 79°
2026-05-04 11:33 -37.66545 144.84858 335 ft 9 kts 259°
2026-05-04 11:33 -37.66586 144.84805 335 ft 8 kts 200°
2026-05-04 11:33 -37.66640 144.84785 336 ft 7 kts 208°
2026-05-04 11:34 -37.66680 144.84751 337 ft 6 kts 214°
2026-05-04 11:34 -37.66706 144.84729 351 ft 3 kts 213°
2026-05-04 11:34 -37.66722 144.84716 354 ft 2 kts 213°
2026-05-04 11:34 -37.66727 144.84711 353 ft 1 kts 213°
2026-05-04 11:35 -37.66729 144.84710 353 ft 0 kts 213°